UAL1653 KDCA-KBOS

Flight info

Callsign UAL1653
Flight time 1h 4m
Altitude 35000
Route SOOKI6 SWANN DCT BROSS Q419 JFK ROBUC3
Aircraft B738/M-VGDW/C

Departure

Time 2026-05-05 23:39
Airport Ronald Reagan Washington National Airport (KDCA)

Arrival

Time 2026-05-06 00:43
Airport Boston Logan International Airport (KBOS)
Time Latitude Longitude Altitude Speed Heading
2026-05-05 23:17 38.85554 -77.04273 27 ft 0 kts 338°
2026-05-05 23:32 38.85537 -77.04264 27 ft 3 kts 338°
2026-05-05 23:32 38.85520 -77.04255 27 ft 3 kts 347°
2026-05-05 23:32 38.85502 -77.04258 27 ft 3 kts 52°
2026-05-05 23:33 38.85498 -77.04267 24 ft 0 kts 68°
2026-05-05 23:35 38.85500 -77.04260 28 ft 4 kts 75°
2026-05-05 23:36 38.85514 -77.04190 27 ft 12 kts 74°
2026-05-05 23:36 38.85545 -77.04059 24 ft 17 kts 73°
2026-05-05 23:36 38.85608 -77.03962 25 ft 17 kts
2026-05-05 23:36 38.85728 -77.03975 27 ft 18 kts 354°
2026-05-05 23:37 38.85866 -77.03988 25 ft 22 kts 357°
2026-05-05 23:37 38.85988 -77.03962 25 ft 12 kts 17°
2026-05-05 23:37 38.86074 -77.03916 23 ft 14 kts 46°
2026-05-05 23:37 38.86078 -77.03894 22 ft 0 kts 112°
2026-05-05 23:38 38.86047 -77.03871 23 ft 14 kts 165°
2026-05-05 23:38 38.85775 -77.03839 24 ft 78 kts 175°
2026-05-05 23:38 38.84973 -77.03759 39 ft 148 kts 180°
2026-05-05 23:38 38.83821 -77.03634 505 ft 183 kts 178°
2026-05-05 23:39 38.82480 -77.03441 963 ft 198 kts 172°
2026-05-05 23:39 38.81100 -77.03053 1221 ft 207 kts 171°
2026-05-05 23:39 38.79657 -77.02672 1467 ft 216 kts 173°
2026-05-05 23:39 38.78177 -77.02321 1761 ft 221 kts 174°
2026-05-05 23:40 38.76592 -77.01849 2149 ft 250 kts 163°
2026-05-05 23:40 38.75194 -77.00523 2691 ft 249 kts 133°
2026-05-05 23:40 38.74608 -76.98425 2799 ft 261 kts 98°
2026-05-05 23:40 38.74752 -76.96040 2842 ft 276 kts 88°
2026-05-05 23:41 38.74965 -76.93494 3050 ft 305 kts 84°
2026-05-05 23:41 38.75862 -76.90997 3880 ft 317 kts 50°
2026-05-05 23:41 38.77584 -76.89136 4479 ft 333 kts 30°
2026-05-05 23:41 38.79644 -76.87852 5539 ft 326 kts 23°
2026-05-05 23:42 38.81623 -76.86598 6844 ft 310 kts 26°
2026-05-05 23:42 38.83485 -76.85214 7871 ft 308 kts 28°
2026-05-05 23:42 38.85333 -76.83786 8715 ft 312 kts 28°
2026-05-05 23:42 38.87178 -76.82290 9546 ft 316 kts 33°
2026-05-05 23:43 38.88905 -76.80460 10256 ft 326 kts 40°
2026-05-05 23:43 38.90560 -76.78437 10740 ft 340 kts 41°
2026-05-05 23:43 38.92316 -76.76258 11008 ft 362 kts 41°
2026-05-05 23:43 38.94212 -76.73973 11238 ft 383 kts 40°
2026-05-05 23:44 38.96184 -76.71656 11748 ft 392 kts 40°
2026-05-05 23:44 38.98209 -76.69304 12473 ft 395 kts 39°
2026-05-05 23:44 39.00269 -76.66917 13214 ft 398 kts 39°
2026-05-05 23:44 39.02321 -76.64484 13879 ft 404 kts 41°
2026-05-05 23:45 39.04327 -76.61916 14498 ft 409 kts 43°
2026-05-05 23:45 39.06336 -76.59296 15104 ft 413 kts 43°
2026-05-05 23:45 39.08357 -76.56685 15708 ft 417 kts 43°
2026-05-05 23:45 39.10397 -76.53999 16313 ft 422 kts 49°
2026-05-05 23:46 39.11902 -76.50732 16874 ft 428 kts 70°
2026-05-05 23:46 39.12563 -76.46991 17484 ft 429 kts 84°
2026-05-05 23:46 39.12954 -76.43157 18099 ft 432 kts 85°
2026-05-05 23:46 39.13327 -76.39344 18622 ft 436 kts 84°
2026-05-05 23:47 39.13724 -76.35455 19123 ft 439 kts 84°
2026-05-05 23:47 39.14144 -76.31534 19646 ft 443 kts 84°
2026-05-05 23:47 39.14579 -76.27593 20161 ft 446 kts 84°
2026-05-05 23:47 39.15019 -76.23618 20665 ft 449 kts 84°
2026-05-05 23:48 39.15471 -76.19608 21151 ft 452 kts 84°
2026-05-05 23:48 39.15939 -76.15576 21569 ft 457 kts 84°
2026-05-05 23:48 39.16415 -76.11491 21947 ft 462 kts 83°
2026-05-05 23:48 39.16887 -76.07444 22446 ft 463 kts 83°
2026-05-05 23:49 39.17365 -76.03307 22873 ft 467 kts 83°
2026-05-05 23:49 39.17844 -75.99139 23275 ft 471 kts 83°
2026-05-05 23:49 39.18324 -75.94944 23657 ft 474 kts 83°
2026-05-05 23:49 39.19127 -75.90798 23986 ft 480 kts 69°
2026-05-05 23:50 39.20680 -75.86982 24384 ft 481 kts 56°
2026-05-05 23:50 39.22621 -75.83519 24795 ft 482 kts 49°
2026-05-05 23:50 39.24839 -75.80272 25155 ft 483 kts 46°
2026-05-05 23:50 39.27122 -75.77073 25530 ft 484 kts 45°
2026-05-05 23:51 39.29421 -75.73898 25983 ft 483 kts 45°
2026-05-05 23:51 39.31719 -75.70720 26333 ft 485 kts 45°
2026-05-05 23:51 39.34026 -75.67507 26623 ft 488 kts 45°
2026-05-05 23:51 39.36331 -75.64269 26940 ft 491 kts 45°
2026-05-05 23:52 39.38647 -75.60993 27223 ft 493 kts 45°
2026-05-05 23:52 39.40966 -75.57697 27535 ft 495 kts 45°
2026-05-05 23:52 39.43253 -75.54435 27859 ft 496 kts 45°
2026-05-05 23:52 39.45579 -75.51114 28180 ft 498 kts 45°
2026-05-05 23:53 39.47910 -75.47780 28485 ft 499 kts 45°
2026-05-05 23:53 39.50247 -75.44437 28867 ft 499 kts 45°
2026-05-05 23:53 39.52571 -75.41108 29362 ft 495 kts 45°
2026-05-05 23:53 39.54840 -75.37853 29991 ft 490 kts 45°
2026-05-05 23:54 39.57125 -75.34574 30380 ft 488 kts 44°
2026-05-05 23:54 39.59408 -75.31297 30649 ft 489 kts 44°
2026-05-05 23:54 39.61691 -75.28017 30953 ft 489 kts 44°
2026-05-05 23:54 39.63942 -75.24779 31326 ft 487 kts 44°
2026-05-05 23:55 39.66212 -75.21508 31738 ft 484 kts 44°
2026-05-05 23:55 39.68462 -75.18263 32126 ft 482 kts 43°
2026-05-05 23:55 39.70705 -75.15025 32459 ft 481 kts 43°
2026-05-05 23:55 39.72944 -75.11790 32776 ft 480 kts 43°
2026-05-05 23:56 39.75184 -75.08551 33126 ft 479 kts 43°
2026-05-05 23:56 39.77384 -75.05365 33512 ft 475 kts 43°
2026-05-05 23:56 39.79568 -75.02192 34221 ft 465 kts 42°
2026-05-05 23:56 39.81718 -74.99068 34538 ft 463 kts 42°
2026-05-05 23:57 39.83879 -74.95932 34670 ft 466 kts 42°
2026-05-05 23:57 39.86052 -74.92781 34794 ft 468 kts 42°
2026-05-05 23:57 39.90401 -74.86457 34891 ft 472 kts 43°
2026-05-05 23:58 39.94785 -74.80063 34905 ft 472 kts 43°
2026-05-05 23:58 39.99154 -74.73677 34900 ft 471 kts 43°
2026-05-05 23:59 40.03521 -74.67279 34898 ft 471 kts 43°
2026-05-05 23:59 40.07858 -74.60911 34875 ft 472 kts 43°
2026-05-06 00:00 40.12203 -74.54519 34876 ft 472 kts 43°
2026-05-06 00:00 40.16585 -74.48056 34902 ft 473 kts 43°
2026-05-06 00:01 40.20928 -74.41638 34907 ft 473 kts 43°
2026-05-06 00:01 40.25289 -74.35180 34916 ft 472 kts 43°
2026-05-06 00:02 40.29617 -74.28757 34932 ft 472 kts 43°
2026-05-06 00:02 40.33972 -74.22281 34925 ft 472 kts 43°
2026-05-06 00:03 40.38319 -74.15803 34913 ft 473 kts 43°
2026-05-06 00:03 40.42642 -74.09348 34869 ft 473 kts 43°
2026-05-06 00:04 40.46991 -74.02840 34895 ft 474 kts 44°
2026-05-06 00:04 40.51347 -73.96308 34897 ft 475 kts 44°
2026-05-06 00:05 40.57889 -73.86470 34702 ft 479 kts 44°
2026-05-06 00:05 40.60070 -73.83187 34117 ft 482 kts 43°
2026-05-06 00:06 40.62269 -73.79867 33429 ft 481 kts 44°
2026-05-06 00:06 40.64473 -73.76538 32719 ft 481 kts 44°
2026-05-06 00:06 40.66673 -73.73211 32014 ft 481 kts 44°
2026-05-06 00:06 40.68888 -73.69859 31297 ft 482 kts 45°
2026-05-06 00:07 40.71068 -73.66555 30562 ft 483 kts 45°
2026-05-06 00:07 40.73267 -73.63218 29986 ft 480 kts 45°
2026-05-06 00:07 40.75453 -73.59895 29395 ft 476 kts 46°
2026-05-06 00:07 40.77613 -73.56609 28839 ft 471 kts 46°
2026-05-06 00:08 40.79750 -73.53355 28289 ft 466 kts 46°
2026-05-06 00:08 40.81871 -73.50125 27743 ft 462 kts 46°
2026-05-06 00:08 40.83944 -73.46964 27205 ft 458 kts 46°
2026-05-06 00:08 40.86021 -73.43796 26933 ft 450 kts 46°
2026-05-06 00:09 40.88082 -73.40715 26889 ft 445 kts 45°
2026-05-06 00:09 40.90131 -73.37692 26860 ft 434 kts 45°
2026-05-06 00:09 40.92122 -73.34765 26858 ft 419 kts 45°
2026-05-06 00:09 40.94018 -73.31974 26857 ft 406 kts 45°
2026-05-06 00:10 40.95877 -73.29232 26843 ft 394 kts 44°
2026-05-06 00:10 40.97713 -73.26522 26908 ft 400 kts 44°
2026-05-06 00:10 40.99619 -73.23710 26893 ft 413 kts 45°
2026-05-06 00:10 41.01538 -73.20870 26907 ft 425 kts 45°
2026-05-06 00:11 41.03535 -73.17909 26897 ft 436 kts 45°
2026-05-06 00:11 41.05576 -73.14873 26899 ft 446 kts 45°
2026-05-06 00:11 41.07664 -73.11762 26904 ft 456 kts 45°
2026-05-06 00:11 41.09792 -73.08587 26925 ft 465 kts 45°
2026-05-06 00:12 41.11966 -73.05340 26914 ft 473 kts 45°
2026-05-06 00:12 41.14164 -73.02053 26926 ft 478 kts 45°
2026-05-06 00:12 41.16374 -72.98744 26911 ft 479 kts 45°
2026-05-06 00:12 41.18554 -72.95478 26588 ft 478 kts 45°
2026-05-06 00:13 41.20738 -72.92179 26056 ft 474 kts 47°
2026-05-06 00:13 41.22582 -72.88511 25555 ft 478 kts 59°
2026-05-06 00:13 41.23597 -72.85911 25255 ft 477 kts 61°
2026-05-06 00:13 41.25052 -72.81946 24775 ft 475 kts 63°
2026-05-06 00:14 41.26930 -72.76724 24157 ft 470 kts 63°
2026-05-06 00:14 41.28357 -72.72815 23696 ft 467 kts 62°
2026-05-06 00:14 41.29326 -72.70204 23377 ft 465 kts 62°
2026-05-06 00:14 41.30758 -72.66393 22997 ft 465 kts 62°
2026-05-06 00:15 41.32215 -72.62554 22949 ft 465 kts 62°
2026-05-06 00:15 41.33677 -72.58711 22913 ft 465 kts 62°
2026-05-06 00:15 41.35143 -72.54858 22922 ft 464 kts 62°
2026-05-06 00:15 41.36602 -72.51015 22924 ft 465 kts 62°
2026-05-06 00:16 41.38060 -72.47170 22921 ft 465 kts 62°
2026-05-06 00:16 41.39493 -72.43379 22924 ft 464 kts 62°
2026-05-06 00:16 41.40951 -72.39518 22928 ft 465 kts 62°
2026-05-06 00:16 41.42405 -72.35661 22922 ft 465 kts 62°
2026-05-06 00:17 41.43855 -72.31808 22914 ft 465 kts 62°
2026-05-06 00:17 41.45289 -72.27994 22920 ft 464 kts 62°
2026-05-06 00:17 41.46736 -72.24143 22914 ft 465 kts 61°
2026-05-06 00:17 41.48184 -72.20280 22904 ft 465 kts 62°
2026-05-06 00:18 41.49617 -72.16400 22910 ft 465 kts 62°
2026-05-06 00:18 41.51036 -72.12512 22909 ft 466 kts 62°
2026-05-06 00:18 41.52453 -72.08618 22918 ft 466 kts 62°
2026-05-06 00:18 41.53876 -72.04714 22922 ft 467 kts 62°
2026-05-06 00:19 41.55283 -72.00857 22858 ft 467 kts 62°
2026-05-06 00:19 41.56630 -71.96897 22304 ft 467 kts 66°
2026-05-06 00:19 41.57811 -71.92863 21794 ft 462 kts 68°
2026-05-06 00:19 41.58955 -71.88880 21273 ft 456 kts 68°
2026-05-06 00:20 41.60102 -71.84956 20767 ft 450 kts 68°
2026-05-06 00:20 41.61232 -71.81122 20098 ft 447 kts 68°
2026-05-06 00:20 41.62364 -71.77293 19358 ft 438 kts 68°
2026-05-06 00:20 41.63475 -71.73537 18636 ft 430 kts 68°
2026-05-06 00:21 41.64565 -71.69841 17909 ft 423 kts 68°
2026-05-06 00:21 41.65637 -71.66198 17128 ft 417 kts 69°
2026-05-06 00:21 41.66692 -71.62608 16356 ft 412 kts 69°
2026-05-06 00:21 41.67710 -71.59138 16030 ft 395 kts 69°
2026-05-06 00:22 41.68687 -71.55803 15901 ft 374 kts 68°
2026-05-06 00:22 41.69616 -71.52625 15560 ft 362 kts 68°
2026-05-06 00:22 41.70528 -71.49505 15207 ft 354 kts 68°
2026-05-06 00:22 41.71416 -71.46462 14927 ft 348 kts 68°
2026-05-06 00:23 41.72293 -71.43462 14703 ft 352 kts 68°
2026-05-06 00:23 41.73365 -71.40491 14460 ft 356 kts 59°
2026-05-06 00:23 41.74633 -71.37648 14208 ft 353 kts 57°
2026-05-06 00:23 41.75904 -71.34839 13959 ft 351 kts 58°
2026-05-06 00:24 41.77144 -71.32016 13709 ft 351 kts 59°
2026-05-06 00:24 41.78345 -71.29223 13448 ft 350 kts 59°
2026-05-06 00:24 41.79549 -71.26398 13184 ft 349 kts 59°
2026-05-06 00:24 41.80747 -71.23581 12938 ft 347 kts 59°
2026-05-06 00:25 41.81944 -71.20767 12700 ft 346 kts 59°
2026-05-06 00:25 41.83136 -71.17964 12459 ft 345 kts 59°
2026-05-06 00:25 41.84325 -71.15163 12215 ft 341 kts 59°
2026-05-06 00:25 41.85485 -71.12431 12075 ft 334 kts 59°
2026-05-06 00:26 41.86625 -71.09771 12020 ft 330 kts 59°
2026-05-06 00:26 41.87787 -71.07086 11642 ft 336 kts 59°
2026-05-06 00:26 41.88957 -71.04387 11428 ft 332 kts 59°
2026-05-06 00:26 41.90117 -71.01704 11210 ft 328 kts 59°
2026-05-06 00:27 41.91260 -70.99059 11009 ft 325 kts 59°
2026-05-06 00:27 41.92377 -70.96468 10807 ft 324 kts 59°
2026-05-06 00:27 41.93512 -70.93833 10616 ft 325 kts 59°
2026-05-06 00:27 41.94645 -70.91201 10420 ft 325 kts 59°
2026-05-06 00:28 41.95777 -70.88565 10210 ft 323 kts 59°
2026-05-06 00:28 41.96876 -70.86006 10002 ft 318 kts 59°
2026-05-06 00:28 41.97976 -70.83443 9809 ft 313 kts 59°
2026-05-06 00:28 41.99061 -70.80910 9614 ft 310 kts 59°
2026-05-06 00:29 42.00139 -70.78393 9432 ft 309 kts 59°
2026-05-06 00:29 42.01242 -70.75904 9241 ft 309 kts 53°
2026-05-06 00:29 42.02590 -70.73708 9034 ft 308 kts 45°
2026-05-06 00:29 42.04061 -70.71613 8857 ft 307 kts 44°
2026-05-06 00:30 42.05533 -70.69514 8661 ft 308 kts 45°
2026-05-06 00:30 42.06986 -70.67385 8469 ft 307 kts 46°
2026-05-06 00:30 42.08420 -70.65251 8283 ft 307 kts 46°
2026-05-06 00:30 42.09840 -70.63132 8103 ft 306 kts 44°
2026-05-06 00:31 42.11555 -70.61496 7865 ft 300 kts 17°
2026-05-06 00:31 42.13541 -70.60755 7624 ft 296 kts
2026-05-06 00:31 42.15544 -70.60213 7342 ft 297 kts
2026-05-06 00:31 42.17569 -70.59683 7065 ft 296 kts
2026-05-06 00:32 42.19592 -70.59147 6766 ft 295 kts
2026-05-06 00:32 42.21607 -70.58601 6478 ft 294 kts
2026-05-06 00:32 42.23607 -70.58052 6200 ft 293 kts
2026-05-06 00:32 42.25576 -70.57505 5906 ft 292 kts
2026-05-06 00:33 42.27569 -70.56948 5618 ft 291 kts
2026-05-06 00:33 42.29560 -70.56392 5330 ft 290 kts
2026-05-06 00:33 42.31535 -70.56039 5048 ft 279 kts 347°
2026-05-06 00:33 42.33280 -70.56790 4987 ft 256 kts 322°
2026-05-06 00:34 42.34675 -70.58141 4960 ft 246 kts 309°
2026-05-06 00:34 42.35920 -70.59742 4975 ft 246 kts 307°
2026-05-06 00:34 42.37136 -70.61380 4946 ft 246 kts 306°
2026-05-06 00:34 42.38351 -70.63017 4946 ft 245 kts 306°
2026-05-06 00:35 42.39551 -70.64625 4940 ft 245 kts 306°
2026-05-06 00:35 42.40770 -70.66249 4935 ft 245 kts 307°
2026-05-06 00:35 42.41991 -70.67869 4934 ft 245 kts 307°
2026-05-06 00:35 42.43208 -70.69480 4934 ft 245 kts 307°
2026-05-06 00:36 42.44428 -70.71093 4932 ft 245 kts 307°
2026-05-06 00:36 42.45647 -70.72704 4928 ft 245 kts 307°
2026-05-06 00:36 42.46855 -70.74298 4887 ft 246 kts 307°
2026-05-06 00:36 42.48094 -70.75937 4612 ft 249 kts 307°
2026-05-06 00:37 42.49330 -70.77567 4366 ft 246 kts 307°
2026-05-06 00:37 42.50554 -70.79182 4001 ft 245 kts 307°
2026-05-06 00:37 42.51808 -70.80754 3555 ft 245 kts 308°
2026-05-06 00:37 42.52849 -70.82477 3124 ft 233 kts 292°
2026-05-06 00:38 42.53285 -70.84415 2961 ft 202 kts 261°
2026-05-06 00:38 42.52830 -70.86092 2936 ft 188 kts 238°
2026-05-06 00:38 42.52477 -70.87792 2810 ft 193 kts 257°
2026-05-06 00:38 42.51948 -70.89456 2473 ft 193 kts 236°
2026-05-06 00:39 42.51185 -70.90953 2260 ft 192 kts 233°
2026-05-06 00:39 42.50394 -70.92376 2081 ft 186 kts 232°
2026-05-06 00:39 42.49614 -70.93706 1953 ft 179 kts 227°
2026-05-06 00:39 42.48535 -70.94525 1788 ft 180 kts 201°
2026-05-06 00:40 42.47407 -70.95159 1667 ft 171 kts 210°
2026-05-06 00:40 42.46353 -70.95756 1572 ft 156 kts 204°
2026-05-06 00:40 42.45368 -70.96216 1385 ft 143 kts 203°
2026-05-06 00:40 42.44462 -70.96649 1172 ft 133 kts 205°
2026-05-06 00:41 42.43624 -70.97057 1000 ft 126 kts 204°
2026-05-06 00:41 42.42787 -70.97464 1009 ft 128 kts 202°
2026-05-06 00:41 42.41953 -70.97853 992 ft 127 kts 202°
2026-05-06 00:41 42.41083 -70.98294 868 ft 136 kts 202°
2026-05-06 00:42 42.40198 -70.98729 707 ft 134 kts 200°
2026-05-06 00:42 42.39320 -70.99136 496 ft 134 kts 200°
2026-05-06 00:42 42.38440 -70.99579 296 ft 136 kts 199°
2026-05-06 00:42 42.37555 -71.00004 102 ft 132 kts 199°
2026-05-06 00:43 42.36757 -71.00385 25 ft 107 kts 200°
2026-05-06 00:43 42.36316 -71.00600 26 ft 26 kts 200°
2026-05-06 00:43 42.36169 -71.00698 26 ft 21 kts 229°
2026-05-06 00:43 42.36165 -71.00860 27 ft 16 kts 294°
2026-05-06 00:44 42.36209 -71.00993 26 ft 15 kts 294°
2026-05-06 00:44 42.36251 -71.01118 25 ft 16 kts 294°
2026-05-06 00:44 42.36305 -71.01249 24 ft 16 kts 301°
2026-05-06 00:44 42.36334 -71.01312 27 ft 0 kts 302°
2026-05-06 00:45 42.36340 -71.01324 26 ft 4 kts 301°
2026-05-06 00:46 42.36358 -71.01370 26 ft 7 kts 290°
2026-05-06 00:46 42.36336 -71.01435 26 ft 10 kts 201°
2026-05-06 00:46 42.36259 -71.01469 26 ft 13 kts 199°
2026-05-06 00:46 42.36219 -71.01522 26 ft 7 kts 269°
2026-05-06 00:47 42.36238 -71.01606 28 ft 9 kts 275°
2026-05-06 00:47 42.36214 -71.01663 26 ft 1 kts 231°
2026-05-06 00:47 42.36210 -71.01669 25 ft 0 kts 230°